Location: Gauravaram
(16.6995°N, 80.5417°E)
Time: 18:51:48
(UTC+00:00)

SPOT 1/Viking Rocket - Pass Details

Date: 03 August 2024
Orbit: 773 x 792 km, 98.3° (Epoch: 18 September)

Event Time Altitude Azimuth Distance (km) Brightness Sun altitude
Exits shadow 14:17:58 - 168° (SSE) 2,496 5.8 -16.2°
Reaches altitude 10° 14:18:23 10° 169° (SSE) 2,335 5.7 -16.3°
Maximum altitude 14:23:32 87° 255° (WSW) 791 3.5 -17.4°
Drops below altitude 10° 14:28:45 10° 347° (NNW) 2,349 6.5 -18.6°
Sets 14:31:04 0° 348° (NNW) 3,281 7.3 -19.1°
